STARLINK-34699

Last updated on Tue Aug 26 2025 00:02:05 GMT+0000 (Coordinated Universal Time)

1 64921U 25157T 25237.58336806 -.00001477 00000+0 -26954-4 0 9990 2 64921 53.1608 187.8011 0001521 100.9020 155.0232 15.39609588 6035

Satellite not in orbit

STARLINK-34699